Precipitable_Water
0.60 0.58 0.54 0.48 0.43 0.43 0.46 0.46 0.44 0.43 0.41 0.38 0.37 0.38 0.36 0.37 0.38 0.32 0.22 0.35 0.40 0.44 0.43 0.37 0.30 0.28 0.31 0.25 0.25 0.26 0.18 0.18 0.18 0.17 0.22 0.23 0.22 0.24 0.22 0.21 0.23 0.27 0.31 0.47 0.53
0.62 0.60 0.57 0.51 0.45 0.41 0.41 0.43 0.43 0.42 0.39 0.36 0.40 0.39 0.38 0.36 0.30 0.24 0.37 0.42 0.44 0.44 0.34 0.28 0.23 0.26 0.25 0.24 0.23 0.23 0.22 0.22 0.24 0.24 0.23 0.22 0.21 0.23 0.23 0.25 0.27 0.32 0.41 0.48 0.47
0.64 0.62 0.57 0.55 0.50 0.45 0.41 0.40 0.39 0.37 0.38 0.41 0.40 0.41 0.39 0.42 0.27 0.25 0.37 0.37 0.40 0.42 0.38 0.30 0.27 0.27 0.22 0.22 0.22 0.23 0.21 0.23 0.24 0.26 0.27 0.24 0.26 0.27 0.25 0.28 0.32 0.30 0.38 0.45 0.49
0.68 0.62 0.60 0.56 0.52 0.49 0.44 0.41 0.43 0.44 0.43 0.42 0.43 0.41 0.40 0.39 0.21 0.32 0.39 0.40 0.43 0.41 0.35 0.30 0.26 0.25 0.23 0.21 0.23 0.19 0.25 0.27 0.27 0.26 0.25 0.25 0.28 0.28 0.29 0.29 0.33 0.34 0.35 0.47 0.49
0.63 0.62 0.61 0.59 0.54 0.50 0.46 0.45 0.44 0.44 0.44 0.43 0.41 0.39 0.37 0.29 0.27 0.40 0.41 0.42 0.44 0.41 0.34 0.32 0.28 0.29 0.24 0.24 0.26 0.24 0.26 0.27 0.27 0.28 0.29 0.30 0.29 0.29 0.29 0.33 0.36 0.37 0.41 0.47 0.51
0.67 0.61 0.59 0.59 0.54 0.51 0.47 0.44 0.44 0.43 0.45 0.46 0.45 0.41 0.37 0.28 0.43 0.44 0.44 0.43 0.44 0.43 0.39 0.37 0.33 0.34 0.28 0.28 0.28 0.28 0.28 0.29 0.32 0.31 0.31 0.27 0.29 0.27 0.32 0.36 0.36 0.39 0.41 0.45 0.51
0.70 0.65 0.58 0.55 0.54 0.50 0.48 0.45 0.44 0.44 0.44 0.45 0.45 0.44 0.35 0.33 0.47 0.46 0.48 0.45 0.47 0.46 0.37 0.39 0.39 0.37 0.33 0.28 0.34 0.31 0.27 0.30 0.28 0.28 0.29 0.30 0.27 0.27 0.33 0.35 0.35 0.38 0.41 0.46 0.53
0.72 0.66 0.60 0.56 0.52 0.49 0.47 0.46 0.42 0.44 0.43 0.40 0.45 0.46 0.33 0.45 0.50 0.45 0.49 0.49 0.50 0.46 0.40 0.42 0.44 0.38 0.36 0.35 0.31 0.28 0.29 0.24 0.30 0.29 0.31 0.30 0.24 0.31 0.37 0.35 0.33 0.35 0.41 0.47 0.54
0.76 0.67 0.60 0.56 0.53 0.47 0.46 0.43 0.43 0.45 0.45 0.42 0.41 0.44 0.34 0.50 0.42 0.46 0.49 0.44 0.47 0.44 0.41 0.43 0.46 0.38 0.36 0.30 0.26 0.27 0.22 0.23 0.26 0.33 0.30 0.29 0.25 0.32 0.37 0.35 0.33 0.33 0.41 0.49 0.51
0.73 0.72 0.63 0.59 0.53 0.47 0.44 0.46 0.48 0.47 0.47 0.45 0.42 0.37 0.40 0.39 0.46 0.48 0.51 0.49 0.43 0.41 0.44 0.42 0.43 0.37 0.34 0.31 0.25 0.24 0.23 0.25 0.24 0.29 0.29 0.26 0.27 0.33 0.36 0.36 0.34 0.33 0.42 0.47 0.49
0.68 0.70 0.66 0.58 0.52 0.47 0.45 0.47 0.45 0.41 0.38 0.34 0.37 0.36 0.40 0.47 0.52 0.46 0.49 0.47 0.45 0.42 0.36 0.42 0.35 0.28 0.30 0.31 0.30 0.28 0.26 0.25 0.28 0.31 0.28 0.28 0.29 0.31 0.36 0.37 0.37 0.38 0.44 0.47 0.49
0.61 0.70 0.63 0.59 0.56 0.52 0.48 0.38 0.41 0.52 0.33 0.42 0.41 0.41 0.45 0.49 0.41 0.44 0.51 0.43 0.41 0.35 0.37 0.36 0.30 0.35 0.36 0.35 0.30 0.28 0.26 0.25 0.28 0.31 0.28 0.27 0.27 0.32 0.36 0.37 0.39 0.41 0.43 0.45 0.47
0.56 0.65 0.65 0.57 0.60 0.58 0.48 0.44 0.57 0.57 0.38 0.36 0.40 0.41 0.41 0.47 0.41 0.41 0.47 0.44 0.40 0.35 0.35 0.33 0.36 0.38 0.36 0.33 0.29 0.28 0.26 0.26 0.26 0.29 0.31 0.28 0.24 0.31 0.36 0.41 0.42 0.46 0.48 0.48 0.47
0.56 0.60 0.60 0.60 0.54 0.56 0.51 0.58 0.60 0.56 0.29 0.32 0.34 0.40 0.45 0.44 0.39 0.50 0.50 0.45 0.40 0.35 0.37 0.34 0.39 0.37 0.34 0.32 0.31 0.26 0.33 0.30 0.28 0.25 0.21 0.29 0.17 0.27 0.34 0.36 0.40 0.42 0.44 0.46 0.48
0.55 0.59 0.57 0.57 0.51 0.50 0.54 0.62 0.62 0.49 0.17 0.37 0.35 0.48 0.47 0.41 0.42 0.44 0.54 0.48 0.38 0.37 0.39 0.38 0.37 0.36 0.34 0.33 0.34 0.30 0.33 0.30 0.29 0.25 0.24 0.24 0.20 0.25 0.34 0.31 0.36 0.41 0.45 0.47 0.49
0.52 0.60 0.56 0.56 0.56 0.55 0.61 0.61 0.52 0.28 0.20 0.30 0.37 0.36 0.38 0.43 0.43 0.46 0.47 0.50 0.47 0.40 0.40 0.39 0.46 0.41 0.37 0.38 0.37 0.36 0.32 0.32 0.32 0.26 0.17 0.23 0.23 0.22 0.27 0.30 0.36 0.41 0.44 0.47 0.48
0.52 0.60 0.57 0.59 0.49 0.60 0.61 0.49 0.29 0.24 0.35 0.30 0.33 0.38 0.40 0.38 0.41 0.43 0.41 0.38 0.35 0.32 0.32 0.36 0.37 0.40 0.40 0.34 0.38 0.34 0.28 0.21 0.20 0.20 0.18 0.27 0.23 0.25 0.32 0.36 0.36 0.38 0.42 0.45 0.47
0.52 0.55 0.58 0.59 0.65 0.61 0.53 0.37 0.23 0.32 0.29 0.35 0.36 0.38 0.36 0.40 0.41 0.41 0.38 0.35 0.40 0.36 0.33 0.28 0.27 0.36 0.39 0.35 0.30 0.29 0.28 0.22 0.15 0.17 0.19 0.27 0.21 0.24 0.36 0.40 0.40 0.40 0.43 0.48 0.44
0.53 0.57 0.53 0.60 0.65 0.62 0.42 0.27 0.29 0.30 0.32 0.31 0.34 0.33 0.35 0.39 0.40 0.38 0.36 0.35 0.38 0.39 0.31 0.28 0.29 0.39 0.39 0.39 0.35 0.31 0.27 0.32 0.23 0.25 0.21 0.24 0.28 0.34 0.38 0.39 0.40 0.40 0.43 0.41 0.42
0.51 0.50 0.49 0.60 0.64 0.53 0.37 0.29 0.31 0.33 0.34 0.33 0.28 0.32 0.30 0.34 0.36 0.37 0.35 0.39 0.37 0.43 0.44 0.36 0.27 0.37 0.36 0.40 0.38 0.35 0.37 0.27 0.28 0.19 0.18 0.22 0.25 0.26 0.32 0.35 0.39 0.38 0.38 0.41 0.44
0.52 0.39 0.59 0.64 0.60 0.44 0.31 0.31 0.31 0.35 0.37 0.32 0.30 0.30 0.33 0.33 0.36 0.34 0.34 0.38 0.41 0.43 0.45 0.40 0.34 0.32 0.37 0.33 0.31 0.33 0.32 0.32 0.30 0.28 0.22 0.21 0.24 0.36 0.37 0.38 0.35 0.37 0.42 0.41 0.40
0.53 0.32 0.61 0.59 0.36 0.40 0.34 0.35 0.35 0.33 0.37 0.35 0.35 0.34 0.32 0.35 0.33 0.34 0.32 0.38 0.45 0.46 0.39 0.43 0.37 0.29 0.31 0.39 0.41 0.38 0.35 0.34 0.27 0.27 0.30 0.30 0.26 0.41 0.40 0.38 0.40 0.40 0.41 0.40 0.39
0.45 0.45 0.61 0.54 0.28 0.31 0.36 0.35 0.37 0.35 0.35 0.35 0.33 0.36 0.38 0.35 0.30 0.35 0.36 0.44 0.47 0.46 0.42 0.45 0.35 0.27 0.28 0.33 0.38 0.36 0.38 0.38 0.37 0.36 0.30 0.28 0.28 0.42 0.41 0.42 0.42 0.40 0.39 0.39 0.35
0.45 0.29 0.44 0.45 0.40 0.36 0.31 0.30 0.32 0.41 0.39 0.41 0.38 0.39 0.37 0.35 0.39 0.34 0.36 0.44 0.48 0.47 0.48 0.48 0.39 0.34 0.26 0.31 0.39 0.34 0.38 0.40 0.38 0.31 0.31 0.30 0.31 0.38 0.41 0.41 0.40 0.39 0.38 0.34 0.35
0.47 0.35 0.41 0.30 0.26 0.27 0.31 0.33 0.32 0.33 0.42 0.43 0.39 0.38 0.38 0.34 0.35 0.35 0.40 0.42 0.47 0.49 0.45 0.43 0.33 0.38 0.38 0.39 0.39 0.37 0.37 0.39 0.37 0.39 0.33 0.32 0.34 0.38 0.42 0.41 0.39 0.38 0.34 0.34 0.34
0.38 0.34 0.40 0.34 0.41 0.33 0.31 0.29 0.30 0.36 0.37 0.36 0.36 0.41 0.43 0.38 0.39 0.36 0.41 0.41 0.39 0.44 0.43 0.44 0.35 0.38 0.32 0.38 0.39 0.33 0.36 0.38 0.39 0.39 0.37 0.36 0.34 0.43 0.40 0.38 0.35 0.34 0.34 0.34 0.32
0.50 0.46 0.41 0.37 0.30 0.30 0.29 0.29 0.30 0.37 0.41 0.42 0.42 0.42 0.41 0.45 0.50 0.54 0.53 0.51 0.48 0.44 0.43 0.42 0.39 0.34 0.27 0.35 0.34 0.27 0.31 0.34 0.36 0.38 0.37 0.32 0.35 0.36 0.34 0.34 0.34 0.34 0.36 0.34 0.31
Wind_Speed
7 6 6 6 7 8 9 9 10 11 11 12 12 13 13 14 14 13 13 11 10 9 9 8 8 7 6 5 4 2 1 2 3 3 2 2 4 5 6 7 7 8 9 9 10
6 6 5 5 5 6 7 7 8 8 8 9 9 10 10 11 11 13 10 9 8 7 7 6 6 4 4 3 2 2 2 2 3 4 3 4 6 7 8 7 8 8 9 10 12
6 5 5 4 3 4 4 5 6 7 7 7 7 7 8 8 8 9 10 8 7 6 5 4 3 3 4 3 2 3 2 0 3 4 6 6 6 7 9 7 9 12 11 12 12
6 4 4 3 3 2 3 3 4 5 6 6 6 5 6 6 6 7 8 7 7 5 4 3 2 2 3 2 1 1 3 3 2 4 6 6 8 7 9 10 12 13 14 12 13
7 5 3 2 2 1 1 2 2 2 4 4 4 5 5 6 5 6 6 6 6 5 4 3 2 2 2 2 3 3 2 2 3 5 6 8 7 9 9 12 11 12 13 12 13
8 5 4 2 1 0 0 1 1 2 3 3 3 2 1 3 4 5 5 5 6 5 5 4 3 2 3 3 4 1 2 2 4 5 6 9 8 9 10 13 11 12 13 13 13
10 7 4 2 1 1 1 1 1 1 1 2 1 2 4 2 3 4 4 5 5 5 4 4 2 3 1 2 2 1 2 3 5 7 7 10 8 8 11 14 12 13 13 14 14
11 8 5 3 2 2 2 2 2 2 2 2 1 1 2 2 2 4 4 3 5 4 3 4 4 3 3 1 2 3 5 4 6 9 8 9 8 9 13 15 16 12 12 13 14
11 9 6 5 3 2 3 4 4 4 3 3 3 3 2 2 3 5 4 4 5 3 3 4 4 2 2 3 3 4 6 7 7 9 10 11 12 10 14 16 14 13 12 13 15
11 10 7 5 3 3 3 3 3 5 5 4 4 3 3 4 4 5 5 5 4 4 4 4 3 3 5 5 4 7 8 9 9 10 12 16 14 11 15 14 14 12 12 14 16
11 11 8 6 4 3 3 4 5 5 4 4 5 4 4 5 4 5 5 5 4 4 4 4 3 4 5 6 6 8 9 11 11 11 15 14 14 13 14 14 13 12 14 16 18
11 11 9 7 6 6 5 5 4 5 4 4 4 4 4 5 5 6 6 5 5 4 4 4 3 5 7 7 7 8 11 11 11 13 16 15 14 13 13 14 14 14 15 17 19
13 12 11 9 8 8 8 7 6 6 7 6 6 5 6 6 4 6 6 6 5 4 5 4 5 6 7 8 10 7 9 12 14 18 16 16 15 12 13 14 14 16 16 18 21
14 13 12 10 9 9 8 8 8 8 8 7 7 7 7 7 6 6 6 6 5 5 5 5 6 7 8 7 10 11 11 15 16 17 14 13 16 14 13 15 16 17 18 20 22
15 14 13 11 11 10 9 9 9 8 8 7 7 7 7 6 7 6 7 7 6 6 8 7 7 8 9 9 11 11 15 15 16 16 16 13 14 16 14 15 17 17 19 21 22
17 16 14 13 12 11 11 11 10 9 11 7 8 8 8 7 7 7 7 6 7 8 7 7 8 9 10 11 11 15 15 14 15 14 14 13 14 18 16 17 15 17 19 21 23
19 18 15 14 12 12 11 11 11 12 10 8 9 9 8 8 8 8 7 8 8 8 8 9 8 9 10 11 12 13 14 15 15 15 15 14 18 20 15 17 18 19 21 23 25
21 19 17 15 14 13 12 12 14 13 11 11 10 10 10 10 9 9 9 9 8 10 9 10 11 10 11 12 13 13 13 12 16 16 18 17 17 17 15 17 19 21 24 24 26
23 21 20 18 17 16 15 15 15 13 12 12 11 12 11 11 10 11 9 10 10 10 9 10 9 10 12 12 12 13 14 16 17 19 18 17 18 19 18 19 20 21 25 26 30
25 24 22 21 19 18 17 18 15 14 13 13 13 12 11 10 12 12 10 11 9 10 12 11 13 12 11 13 13 15 16 16 16 17 20 21 21 18 19 20 22 25 27 30 31
26 24 23 22 21 20 20 19 17 17 15 15 14 13 12 12 13 11 10 12 12 11 12 13 12 12 13 14 14 15 15 16 17 17 18 22 20 20 20 22 24 28 28 30 32
26 26 24 23 22 22 21 20 18 18 17 16 15 14 13 13 12 12 12 12 11 12 12 13 13 15 15 15 16 16 17 18 17 19 20 20 25 21 20 22 29 29 29 32 35
26 26 25 24 23 23 22 20 20 19 19 18 16 15 15 14 13 13 12 13 13 14 13 14 14 17 15 16 17 18 17 19 20 20 21 20 23 21 24 29 30 30 33 35 38
26 25 25 27 26 24 22 22 21 20 19 19 17 16 16 15 15 14 13 15 14 16 16 16 17 17 17 21 22 22 21 21 21 21 22 25 31 28 30 29 29 32 34 37 39
27 26 24 23 25 26 24 22 21 21 21 21 19 20 18 16 16 17 16 15 17 17 17 17 19 21 23 25 25 27 27 26 26 27 26 33 32 34 33 29 30 33 35 38 41
27 26 25 26 24 25 25 25 24 21 21 22 21 21 21 19 19 18 17 17 18 17 18 19 20 21 24 25 26 28 30 27 26 28 30 33 36 31 28 28 31 35 37 40 41
29 28 26 24 25 25 25 24 25 22 23 20 22 19 21 20 17 17 17 18 18 18 19 20 20 21 24 22 26 27 22 21 22 23 24 27 29 27 29 31 35 37 40 41 42
Wind_Direction
48 53 60 65 68 68 70 75 74 71 70 70 72 73 72 73 75 81 81 78 80 77 86 99 104 105 104 101 90 101 80 82 33 0 17 332 319 324 313 315 323 322 321 316 314
42 47 54 63 69 70 72 73 73 70 67 68 73 72 72 74 78 74 67 66 71 79 88 88 101 91 99 87 67 51 20 23 4 355 7 353 337 328 318 308 315 315 315 312 308
33 41 47 55 67 75 74 72 72 69 67 69 73 76 74 73 79 65 48 54 62 72 84 86 97 88 92 70 25 357 1 317 354 339 335 330 328 318 319 324 320 313 310 307 306
27 33 37 45 58 74 81 78 77 72 62 64 70 72 74 73 78 51 42 48 52 61 64 75 89 75 53 37 19 45 356 352 328 325 322 325 313 319 321 313 311 311 309 306 304
19 20 15 22 43 67 91 98 76 70 65 59 65 77 81 77 62 34 34 39 46 45 46 38 52 37 41 43 42 39 350 354 322 322 325 315 315 316 324 318 316 315 310 307 309
16 11 6 16 3 16 143 126 100 89 67 46 51 77 55 58 29 28 32 36 32 32 31 25 30 21 34 356 350 6 19 350 321 324 322 319 316 313 323 320 318 314 314 313 312
16 12 2 346 320 267 237 186 147 107 352 12 43 46 49 48 28 23 30 25 18 17 28 27 6 341 12 22 11 67 2 328 325 326 319 322 312 319 321 320 314 316 316 315 315
10 8 0 340 307 262 222 209 258 285 281 306 323 333 22 356 346 1 357 1 8 14 23 9 10 17 353 40 344 301 315 315 327 323 316 315 320 314 323 319 312 315 317 317 321
0 359 353 347 319 268 249 250 261 265 281 288 285 284 313 311 315 327 333 330 329 345 347 338 347 5 327 303 307 301 319 336 323 326 316 317 314 318 324 321 320 314 316 321 320
349 347 341 332 315 284 258 253 263 268 266 274 277 273 298 308 310 310 314 312 310 311 319 316 312 334 348 323 315 325 324 324 320 323 320 308 298 315 323 320 319 318 318 321 322
336 336 329 318 299 273 269 264 270 267 282 278 287 268 286 295 306 316 308 311 296 298 310 329 357 346 342 333 319 316 313 311 326 319 322 311 308 316 317 315 314 319 322 319 318
322 324 321 300 289 269 269 274 269 261 264 267 269 264 279 294 287 327 313 297 302 299 295 315 320 320 309 310 308 308 311 328 319 317 321 311 306 312 309 312 311 313 316 314 315
308 311 312 294 281 272 266 266 264 260 271 263 266 274 278 287 293 306 306 296 306 327 320 307 304 300 303 314 318 316 317 320 312 317 311 311 305 304 306 305 303 314 313 312 313
295 300 303 293 274 273 268 257 254 267 271 263 254 263 272 270 277 300 300 292 291 291 310 310 294 298 299 306 312 302 315 315 313 323 316 317 312 302 300 298 298 305 308 311 314
287 290 290 287 274 269 263 254 257 264 283 274 256 259 267 267 272 292 294 288 296 289 288 293 295 298 297 305 308 309 314 313 315 312 318 307 314 318 308 300 300 303 305 311 315
279 282 282 274 273 267 255 253 256 262 260 261 262 257 255 271 274 275 284 292 288 287 304 299 298 303 306 304 305 310 310 305 313 314 319 318 315 315 311 307 311 309 312 314 316
274 273 270 271 269 262 254 250 254 251 260 256 260 262 261 271 271 281 284 297 290 295 284 288 294 297 304 303 306 311 314 317 320 322 311 322 318 309 315 317 315 311 312 313 316
271 265 260 264 263 255 251 253 254 259 254 258 257 256 264 270 268 270 271 276 301 293 290 291 294 300 305 311 308 312 317 315 310 313 313 315 309 313 319 317 315 315 318 316 318
268 259 257 256 256 251 250 253 258 257 256 247 254 257 259 260 269 265 285 280 288 300 292 299 290 296 307 305 309 312 311 314 311 313 317 310 313 314 312 316 317 317 319 316 316
262 257 254 253 251 248 250 254 254 255 255 255 254 260 255 258 261 265 266 278 276 288 291 291 295 297 298 302 306 308 311 312 312 315 312 312 309 312 311 311 312 313 313 314 318
255 253 250 248 246 247 250 250 254 251 254 255 255 255 267 261 268 267 274 274 275 281 291 294 292 292 297 295 303 306 306 305 309 307 308 316 313 318 316 315 316 318 318 320 320
252 250 246 244 245 249 250 250 253 248 250 253 257 261 258 257 262 267 267 276 271 280 288 291 294 292 299 300 305 304 305 306 306 310 307 308 309 316 316 315 314 317 317 316 317
249 247 244 243 245 246 249 250 251 245 247 248 252 258 259 256 263 265 270 270 270 279 284 286 288 298 297 302 303 301 301 299 304 307 301 306 308 312 311 313 312 312 314 318 320
248 247 243 243 246 249 244 245 244 249 248 251 252 253 253 258 265 262 265 269 272 282 287 291 289 286 288 295 302 298 298 292 292 299 301 293 299 303 307 312 315 316 318 318 319
241 244 244 243 244 245 240 239 242 244 249 245 251 252 251 257 259 262 265 269 274 278 283 286 285 286 290 293 296 295 293 292 287 287 292 298 299 304 309 310 312 313 315 317 319
241 243 243 246 246 242 239 242 239 243 241 247 253 247 253 258 258 261 261 267 273 276 278 282 289 296 294 292 295 295 291 289 288 290 290 293 298 310 313 313 314 316 318 319 320
238 241 243 241 241 241 243 242 240 238 244 252 245 249 252 258 264 269 273 277 275 276 276 283 288 293 293 301 303 299 296 288 297 298 301 299 308 312 312 316 317 316 318 320 320